Location: Allgraben
(46.8667°N, 15.7333°E)
Time: 08:36:04
(UTC+00:00)

Daily predictions for brighter satellites

Satellite Brightness Start Highest point End
(mag) Time Altitude Azimuth Time Altitude Azimuth Time Altitude Azimuth
STARLINK-1143 3.6 19:15:04 10° SW 19:19:13 83° SSE 19:23:22 10° ENE
Cosmos 676 Rocket 4.5 19:15:40 10° NNW 19:20:52 63° WSW 19:26:04 10° S
STARLINK-1124 3.8 19:17:13 10° WNW 19:21:21 69° SW 19:25:27 10° SE
Cosmos 1634 Rocket 4.1 19:15:16 10° N 19:21:38 87° W 19:27:58 10° S
Resurs 1-3 3.9 19:17:19 10° S 19:21:41 72° WSW 19:26:06 10° NNW
STARLINK-1128 4.4 19:19:28 10° WNW 19:23:30 49° NNE 19:27:32 10° E
STARLINK-1241 3.6 19:20:05 10° WSW 19:24:14 89° SE 19:28:23 10° ENE
STARLINK-1122 3.8 19:22:12 10° WNW 19:26:19 64° SW 19:30:24 10° SE
Cosmos 1300 Rocket 3.6 19:22:35 10° N 19:27:03 69° ENE 19:31:28 10° SSE
STARLINK-1113 4.3 19:24:27 10° WNW 19:28:31 51° NNE 19:32:34 10° E
STARLINK-1239 3.7 19:25:03 10° WSW 19:29:12 86° NNW 19:33:22 10° ENE
NOSS 8 (E) 4.4 19:26:17 10° SSW 19:29:28 46° SE 19:32:24 10° NE
STARLINK-1126 3.9 19:27:14 10° WNW 19:31:20 59° SW 19:35:24 10° SE
Aureole 2 Rocket 3.2 19:29:27 10° SSE 19:32:05 26° ESE 19:34:40 10° NE
NOSS 2-2 (D) 4.4 19:29:49 10° SSE 19:32:29 20° ESE 19:35:18 10° ENE
STARLINK-1119 4.2 19:29:27 10° WNW 19:33:32 54° NNE 19:37:36 10° E
CENTAUR R/B 4.3 19:26:36 10° NW 19:33:32 35° NNE 19:41:14 10° E
Cosmos 1437 Rocket 3.2 19:30:25 10° SSE 19:33:59 41° E 19:37:37 10° NNE
Meteor 1-4 Rocket 3.9 19:30:46 10° SSW 19:34:02 41° WNW 19:37:22 10° N
STARLINK-1240 3.7 19:30:01 10° WSW 19:34:09 81° NNW 19:38:19 10° ENE
STARLINK-1082 4.0 19:32:10 10° WNW 19:36:14 54° SW 19:40:10 11° SE
Cosmos 304 Rocket 4.2 19:32:44 10° S 19:37:11 40° ESE 19:41:40 10° NE
Lacrosse 5 2.4 19:33:03 10° WNW 19:37:57 51° SW 19:42:50 10° SSE
STARLINK-1114 4.2 19:34:25 10° WNW 19:38:30 56° NNE 19:42:35 10° ESE
STARLINK-1203 3.9 19:34:37 10° WSW 19:38:49 77° NNW 19:43:02 10° ENE
STARLINK-1216 3.8 19:34:59 10° WSW 19:39:08 77° NNW 19:43:18 10° ENE
STARLINK-1100 4.1 19:37:09 10° WNW 19:41:11 50° SW 19:44:56 11° SE
ISS -2.7 19:38:08 10° WNW 19:41:13 34° SW 19:44:06 11° SSE
CZ-2C R/B 3.4 19:37:20 10° N 19:42:53 61° WNW 19:48:23 10° SSW
STARLINK-1130 (DARKSAT) 4.1 19:39:24 10° WNW 19:43:31 59° NNE 19:47:36 10° ESE
STARLINK-1237 3.9 19:39:58 10° WSW 19:44:07 72° NNW 19:48:17 10° ENE
STARLINK-1083 4.2 19:42:10 10° WNW 19:46:09 46° SW 19:49:44 12° SSE
Cosmos 1674 Rocket 3.8 19:43:13 10° S 19:47:27 53° E 19:51:46 10° NNE
Meteor 2-4 Rocket 4.0 19:42:19 10° SSW 19:47:38 67° WNW 19:53:00 10° N
STARLINK-1084 4.0 19:44:23 10° WNW 19:48:30 62° NNE 19:52:37 10° ESE
STARLINK-1202 4.0 19:44:59 10° WSW 19:49:07 68° NNW 19:53:16 10° ENE
NOSS 2-2 (E) 3.6 19:46:18 10° S 19:49:36 37° ESE 19:53:15 10° NE
Cosmos 1378 Rocket 4.0 19:46:15 10° SSE 19:50:24 43° E 19:54:34 10° NNE
EXPRESS MD2 3.4 19:47:54 10° SW 19:50:47 51° SE 19:56:03 10° ENE
STARLINK-1125 4.3 19:47:11 10° WNW 19:51:07 43° SW 19:54:31 13° SSE
STARLINK-1098 3.9 19:49:21 10° WNW 19:53:30 66° NNE 19:57:33 10° ESE
Cosmos 1833 Rocket 3.8 19:48:23 10° NW 19:53:35 40° WSW 19:58:45 10° S
Cosmos 2297 3.8 19:48:51 10° S 19:54:23 56° ESE 19:59:59 10° NE
Cosmos 1943 Rocket 3.2 19:50:26 10° SSE 19:54:56 26° ESE 19:59:30 10° NE
STARLINK-1109 4.4 19:52:12 10° WNW 19:56:05 39° SW 19:59:18 14° SSE
STARLINK-1123 3.8 19:54:19 10° WNW 19:58:27 70° NNE 20:02:19 12° ESE
STARLINK-1246 4.2 19:55:01 10° WSW 19:59:07 61° NNW 20:03:14 10° ENE
IGS 5A 3.4 19:55:29 12° SSE 19:59:20 76° ENE 20:03:31 10° N
Cosmos 2082 Rocket 2.7 19:54:46 10° NW 20:00:22 57° WSW 20:05:55 10° S
Cosmos 1452 Rocket 3.9 19:55:49 10° SSW 20:01:04 67° WNW 20:06:22 10° NNE
Cosmos 332 Rocket 3.9 19:56:25 10° SSW 20:01:19 81° WNW 20:06:15 10° NNE
BREEZE-M DEB 3.1 19:59:32 10° SSW 20:01:39 30° SE 20:05:37 10° ENE
Landsat 7 3.8 19:57:48 11° SSE 20:02:19 82° ENE 20:07:07 10° NNW
Intercosmos 24 4.4 19:59:25 10° NNW 20:02:54 53° W 20:06:39 10° S
STARLINK-1097 3.7 19:59:19 10° WNW 20:03:28 74° NNE 20:07:07 13° ESE
STARLINK-1224 4.3 20:00:01 10° WSW 20:04:06 58° NNW 20:08:12 10° ENE
Meteor 1-23 Rocket 4.3 20:00:03 10° S 20:05:40 65° E 20:11:16 10° NNE
Cosmos 1461 3.0 20:03:45 10° SW 20:07:54 85° NW 20:12:18 10° NE
STARLINK-1099 3.7 20:04:17 10° WNW 20:08:27 79° NNE 20:11:54 15° ESE
STARLINK-1225 4.4 20:05:02 10° W 20:09:06 55° NNW 20:13:12 10° ENE
Cosmos 1975 Rocket 4.3 20:07:29 16° SE 20:09:58 25° E 20:13:36 10° NNE
Cosmos 2369 Rocket 3.3 20:07:22 15° SSE 20:10:51 26° ESE 20:15:26 10° NE
SAR-Lupe-2 3.5 20:07:33 10° NNE 20:11:10 85° ESE 20:14:45 10° SSW
STARLINK-1104 3.6 20:09:16 10° WNW 20:13:25 83° NNE 20:16:40 16° ESE
NOSS 2-2 (C) 3.2 20:10:40 10° SSW 20:14:08 52° SE 20:17:56 10° NE
CZ-4B DEB 4.3 20:11:56 18° SSE 20:14:16 75° ENE 20:17:37 10° N
ATLAS 2AS CENTAUR R/B 4.0 20:13:12 14° SSE 20:17:58 25° ESE 20:24:06 10° ENE
SPOT 5 3.3 20:14:18 16° SSE 20:18:24 63° ENE 20:23:42 10° N
STARLINK-1144 3.6 20:14:15 10° WNW 20:18:25 88° NNE 20:21:28 18° ESE
NOSS 3-2 (A) 4.2 20:13:20 10° NW 20:20:44 69° NE 20:27:48 15° SE
STARLINK-1103 3.6 20:19:13 10° WNW 20:23:23 86° SSW 20:26:13 20° ESE
ERS-1 Rocket 3.0 20:19:40 17° SSE 20:23:37 79° ENE 20:28:40 10° NNW
Okean 2 4.0 20:25:56 21° SSE 20:28:15 41° E 20:32:10 10° NNE
STARLINK-1101 3.6 20:24:12 10° WNW 20:28:21 81° SSW 20:31:00 22° SE
Cosmos 1066 Rocket 4.1 20:23:23 10° SSW 20:28:47 85° W 20:34:10 10° N
USA 245 4.0 20:27:56 13° SSW 20:30:09 31° WSW 20:32:31 10° NW
USA 238 DEB 3.9 20:25:26 10° NW 20:32:38 76° NE 20:38:26 18° SE
USA 238 4.0 20:25:32 10° NW 20:32:45 76° NE 20:38:32 18° SE
STARLINK-1102 3.6 20:29:11 10° WNW 20:33:20 76° SW 20:35:47 23° SE
Resurs 01 Rocket 3.9 20:30:34 10° SW 20:33:54 20° W 20:37:15 10° NW
Okean 1 Rocket 3.4 20:30:04 10° NNW 20:34:30 65° W 20:37:54 16° S
Cosmos 2278 Rocket 4.4 20:29:44 10° WSW 20:34:33 28° NW 20:39:24 10° N
Cosmos 1805 3.2 20:30:52 10° N 20:34:48 81° ENE 20:37:07 24° SSE
Cosmos 1470 4.4 20:31:47 10° NNE 20:34:53 22° ENE 20:36:30 17° ESE
Nadezhda 4 Rocket 4.0 20:29:02 10° S 20:35:11 85° W 20:41:21 10° N
STARLINK-1111 3.6 20:34:10 10° WNW 20:38:18 70° SSW 20:40:34 25° SE
Cosmos 1455 Rocket 3.6 20:36:00 10° N 20:40:09 43° ENE 20:42:18 24° SE
STARLINK-1073 3.7 20:39:10 10° WNW 20:43:17 65° SSW 20:45:21 27° SE
SL-8 R/B 3.8 20:38:43 10° WNW 20:43:27 62° SSW 20:46:16 24° SE
Terra 1.8 20:44:22 24° SSE 20:47:18 82° ENE 20:52:05 10° NNW
Cosmos 1110 Rocket 4.3 20:42:51 10° SSW 20:48:00 66° WNW 20:53:09 10° NNE
SL-4 R/B 2.8 20:43:46 10° SSW 20:48:09 37° SE 20:52:37 10° ENE
STARLINK-1121 3.7 20:44:09 10° WNW 20:48:15 61° SW 20:50:08 29° SE
ATLAS 3B CENTAUR R/B 4.1 20:39:50 10° SW 20:48:27 21° SSW 20:50:57 19° S
SPOT 1/Viking Rocket 4.3 20:45:17 14° S 20:49:31 46° W 20:54:29 10° NNW
Cosmos 1842 3.4 20:48:52 29° SSE 20:50:32 53° E 20:54:22 10° NNE
CARTOSAT-1 3.9 20:47:49 20° S 20:50:38 59° W 20:54:56 10° NNW
Abrixas rocket 3.0 20:49:08 10° W 20:51:46 29° SSW 20:51:50 29° SSW
STARLINK-1106 3.8 20:49:10 10° WNW 20:53:13 56° SW 20:54:57 31° SSE
STARLINK-1234 4.1 20:52:18 10° NW 20:55:27 41° NNE 20:57:44 16° E
STARLINK-1112 3.9 20:54:07 10° WNW 20:58:09 52° SW 20:59:42 32° SSE
STARLINK-1209 3.9 20:58:15 10° NW 21:01:27 46° NNE 21:03:26 20° E
STARLINK-1128 4.0 20:59:07 10° WNW 21:03:07 48° SW 21:04:28 34° SSE
Cosmos 1733 3.5 21:04:07 10° NNW 21:07:53 61° W 21:09:32 31° SSW
STARLINK-1113 4.1 21:04:08 10° WNW 21:08:05 44° SW 21:09:16 34° S
Meteor 1-21 4.2 21:07:51 26° S 21:11:04 66° E 21:16:38 10° NNE
COSMOS 2455 3.8 21:09:45 24° SE 21:11:17 27° ESE 21:16:15 10° NE
Cosmos 1378 4.5 21:09:41 13° SW 21:12:38 35° WNW 21:16:06 10° N
STARLINK-1119 4.2 21:09:10 10° WNW 21:13:04 41° SW 21:14:04 34° S
USA 215 4.1 21:08:02 10° E 21:14:18 50° NNE 21:20:33 10° NW
Cosmos 1302 Rocket 4.1 21:10:14 14° SSW 21:14:51 80° WNW 21:20:11 10° NNE
JB-3 4.4 21:10:54 10° NNE 21:15:04 69° E 21:16:37 36° S
Cosmos 1271 Rocket 3.2 21:14:22 38° SE 21:15:15 45° E 21:19:02 10° NNE
Cosmos 1486 Rocket 4.0 21:10:18 10° NNW 21:15:38 87° ENE 21:18:13 31° SSE
Cosmos 1833 4.5 21:10:31 10° NNW 21:16:06 59° ENE 21:19:13 26° SE
Cosmos 1242 Rocket 2.5 21:15:26 44° SSE 21:16:27 69° E 21:20:08 10° NNE
Cosmos 1544 Rocket 3.5 21:12:38 10° N 21:16:59 75° E 21:18:39 37° SSE
MTI 4.0 21:14:48 10° N 21:17:55 62° WNW 21:18:58 36° SW
STARLINK-1114 4.3 21:14:09 10° WNW 21:18:00 37° SW 21:18:49 34° SSW
STARLINK-60 2.8 21:20:10 65° SSE 21:20:10 65° SSE 21:23:20 10° ENE
Cosmos 1092 Rocket 4.3 21:15:31 14° SSW 21:20:46 62° WNW 21:26:54 10° N
STARLINK-1130 (DARKSAT) 4.4 21:19:10 10° WNW 21:22:58 35° SW 21:23:37 32° SSW
CENTAUR R/B 3.2 21:17:14 10° NW 21:25:18 88° NE 21:31:08 24° SE
Cosmos 1707 3.1 21:24:35 41° SE 21:25:21 47° E 21:29:06 10° NNE
ATLAS 3B R/B 3.3 21:21:50 10° NW 21:28:27 53° NE 21:33:56 16° ESE
SL-27 R/B 3.0 21:25:12 10° NNW 21:28:41 48° WSW 21:29:28 40° SSW
NOSS 3-2 (C) 4.1 21:22:56 10° NW 21:30:29 80° SW 21:35:37 27° SSE
Cosmos 1726 3.0 21:28:38 10° N 21:32:06 35° ENE 21:32:50 32° ESE
ALOS 2 3.9 21:30:24 22° ESE 21:32:10 29° ENE 21:35:57 10° N
Cosmos 1867 3.7 21:29:51 10° NNW 21:35:20 71° NE 21:38:06 29° SE
COSMOS 2487 3.5 21:33:08 10° N 21:36:21 34° ENE 21:37:03 31° E
Cosmos 1943 Rocket 2.9 21:32:55 10° SW 21:38:21 53° WNW 21:43:50 10° NNE
Cosmos 1992 Rocket 3.9 21:36:08 34° S 21:38:23 68° ESE 21:43:35 10° NNE
NOSS 3-4 (A) 3.4 21:36:31 26° SSW 21:39:52 61° ESE 21:46:05 10° NE
NOSS 3-4 (C) 3.4 21:36:40 26° SSW 21:39:59 60° ESE 21:46:11 10° NE
SeaSat 1 2.5 21:38:04 10° NE 21:42:57 56° ESE 21:44:34 38° S
EO 1 Del DPAF 3.1 21:39:58 10° NNE 21:43:46 74° ESE 21:44:28 55° S
Cosmos 1975 Rocket 4.5 21:44:36 15° SW 21:47:41 33° WNW 21:51:42 10° N
STARLINK-1212 2.9 21:47:34 10° WNW 21:50:41 72° NNE 21:50:47 71° NE
STARLINK-1105 2.9 21:48:03 10° WNW 21:51:09 73° NNE 21:51:13 72° NE
Cosmos 292 Rocket 4.2 21:48:20 21° SW 21:51:28 60° WNW 21:56:17 10° NNE
Meteor 2-10 3.9 21:46:50 10° N 21:51:54 81° ENE 21:53:43 40° SSE
STARLINK-1247 2.9 21:48:55 10° WNW 21:52:02 74° NNE 21:52:06 73° NE
STARLINK-1227 2.9 21:49:24 10° WNW 21:52:31 74° NNE 21:52:33 74° NE
BREEZE-M DEB (TANK) 3.4 21:40:52 10° WSW 21:52:39 76° NNW 21:56:02 10° ENE
STARLINK-1226 2.9 21:50:16 10° WNW 21:53:22 76° NNE 21:53:23 76° NNE
RESURS DK-1 3.9 21:53:56 22° E 21:53:56 22° E 21:56:43 10° NE
BREEZE-M DEB (TANK) 3.1 21:49:56 10° WNW 21:53:34 71° NNE 21:57:51 10° E
STARLINK-1215 2.9 21:51:09 10° WNW 21:54:16 77° NNE 21:54:16 77° NNE
Cosmos 2369 Rocket 2.8 21:49:04 11° SW 21:54:31 55° WNW 22:00:05 10° NNE
S3M 3.9 21:49:04 10° N 21:55:16 88° W 21:58:11 34° S
Cosmos 2227 Rocket 4.5 21:51:27 10° N 21:55:18 18° NE 21:59:08 10° E
STARLINK-1217 2.9 21:52:58 10° WNW 21:56:00 78° N 21:56:00 78° N
STARLINK-1229 2.9 21:53:53 10° WNW 21:56:53 78° N 21:56:53 78° N
STARLINK-1270 2.9 21:54:46 10° WNW 21:57:45 77° NNW 21:57:45 77° NNW
STARLINK-1189 2.9 21:56:34 10° WNW 21:59:29 74° NW 21:59:29 74° NW
ATLAS CENTAUR R/B 1.4 21:59:35 52° S 22:00:25 66° SE 22:04:33 10° NE
STARLINK-1188 3.0 21:57:29 10° WNW 22:00:22 73° NW 22:00:22 73° NW
Cosmos 1626 4.4 22:01:28 13° E 22:01:35 13° E 22:03:25 10° NE
STARLINK-1187 3.1 21:58:34 10° WNW 22:01:14 62° WNW 22:01:14 62° WNW
Cosmos 1340 Rocket 2.8 21:57:39 10° N 22:01:44 76° E 22:02:31 56° SSE
STARLINK-1197 4.5 21:58:23 10° WNW 22:02:26 50° NNE 22:05:46 14° E
STARLINK-1191 3.1 21:59:55 10° WNW 22:02:39 66° WNW 22:02:39 66° WNW
Aureole 3 3.2 22:00:26 10° N 22:03:24 47° ENE 22:03:24 47° ENE
STARLINK-1221 3.1 22:00:52 10° WNW 22:03:34 64° WNW 22:03:34 64° WNW
Cosmos 1025 Rocket 3.3 22:02:58 38° SW 22:04:24 61° W 22:08:41 10° N
Thor Agena Rocket 3.7 21:59:16 10° N 22:04:33 72° WNW 22:07:12 30° SSW
STARLINK-1222 3.1 22:01:43 10° WNW 22:04:23 62° WNW 22:04:23 62° WNW
STARLINK-1214 3.2 22:02:37 10° WNW 22:05:15 61° WNW 22:05:15 61° WNW
Meteor 2-19 Rocket 4.4 22:03:37 35° S 22:06:19 75° E 22:12:27 10° NNE
Cosmos 1908 3.9 22:03:09 10° N 22:06:48 41° ENE 22:07:21 39° E
STARLINK-1198 4.4 22:03:21 10° WNW 22:07:25 52° NNE 22:10:32 16° E
Cosmos 1656 Rocket 3.7 22:04:50 27° SSW 22:08:03 80° WNW 22:13:39 10° NNE
ATLAS 2AS CENTAUR R/B 3.0 22:00:30 12° SW 22:08:09 89° NW 22:16:09 10° NE
Cosmos 1553 Rocket 4.4 22:02:34 10° NNW 22:08:40 53° W 22:11:43 28° SSW
BREEZE M DEB (TANK) 3.1 22:06:23 10° W 22:08:33 38° NW 22:08:33 38° NW
Cosmos 1953 2.3 22:06:02 10° NNW 22:10:01 72° W 22:10:41 57° SSW
BREEZE-M DEB (TANK) 3.6 22:00:32 10° WNW 22:10:53 56° SW 22:11:56 44° S
Cosmos 1470 4.0 22:07:34 10° NNW 22:10:58 29° W 22:11:51 26° WSW
STARLINK-1228 3.4 22:08:07 10° WNW 22:11:08 55° WSW 22:11:08 55° WSW
STARLINK-1199 4.3 22:08:21 10° WNW 22:12:27 54° NNE 22:15:20 18° E
Cosmos 2292 Rocket 2.9 22:13:24 74° SE 22:13:36 78° E 22:16:50 10° NNE
STARLINK-1235 3.8 22:10:49 10° WNW 22:13:12 42° W 22:13:12 42° W
Cosmos 968 Rocket 4.4 22:11:15 10° NW 22:15:57 37° WSW 22:17:31 30° SW
FALCON 9 R/B 4.4 22:19:35 16° ESE 22:19:35 16° ESE 22:22:39 10° ESE
STARLINK-1210 4.2 22:13:19 10° WNW 22:17:25 57° NNE 22:20:06 20° E
KORONAS-FOTON 4.1 22:17:21 48° ESE 22:17:34 49° E 22:21:18 10° NNE
Cosmos 1655 Rocket 4.1 22:15:01 30° SSW 22:18:16 69° W 22:24:33 10° N
SL-4 R/B 3.2 22:20:18 22° NNW 22:20:18 22° NNW 22:21:14 10° NNW
Cosmos 1777 Rocket 4.3 22:16:00 10° NNW 22:21:12 62° ENE 22:23:18 35° SE
STARLINK-1219 4.1 22:18:18 10° WNW 22:22:24 60° NNE 22:24:52 23° E
ATLAS 5 CENTAUR R/B 1.6 22:21:46 36° WSW 22:22:56 63° NW 22:25:09 10° NE
Terra 4.2 22:23:35 10° WSW 22:25:39 13° W 22:27:44 10° WNW
Cosmos 1892 Rocket 4.3 22:25:06 35° ESE 22:25:48 38° E 22:29:51 10° NNE
STARLINK-52 3.4 22:26:27 55° NE 22:26:27 55° NE 22:29:04 10° ENE
STARLINK-1211 4.0 22:23:17 10° WNW 22:27:26 63° NNE 22:29:40 25° E
SL-4 R/B 2.6 22:22:55 10° WSW 22:27:45 72° NNW 22:32:34 10° ENE
Cosmos 2228 3.0 22:23:33 10° N 22:27:49 68° E 22:28:36 53° SE
Cosmos 1726 Rocket 3.8 22:24:18 10° N 22:28:34 56° ENE 22:29:31 45° SE
Meteor 2-15 4.4 22:22:27 10° NNW 22:28:37 80° W 22:31:06 38° S
In-Cosmos 22 4.2 22:30:05 37° SSW 22:32:09 70° WNW 22:37:27 10° N
Cosmos 921 Rocket 3.9 22:31:52 32° ESE 22:32:10 33° E 22:36:04 10° NE
STARLINK-1245 3.9 22:28:15 10° WNW 22:32:23 67° NNE 22:34:26 28° E
Cosmos 1300 4.1 22:29:26 10° NNE 22:32:46 28° ENE 22:33:33 26° E
Meteor 1-24 Rocket 4.3 22:33:05 33° SE 22:34:40 42° E 22:39:48 10° NNE
Cosmos 2266 Rocket 4.1 22:33:43 33° SSW 22:36:33 68° W 22:42:35 10° N
CZ-4C R/B 4.1 22:36:20 12° ESE 22:36:40 12° ESE 22:38:42 10° E
STARLINK-1233 3.8 22:33:13 10° WNW 22:37:21 71° NNE 22:39:12 32° ESE
STARLINK-1204 3.7 22:38:12 10° WNW 22:42:21 75° NNE 22:43:59 35° ESE
SJ 16-02 3.4 22:40:48 10° N 22:44:15 22° ENE 22:47:11 12° ESE
STARLINK-1374 4.4 22:45:33 34° E 22:45:33 34° E 22:48:01 10° ENE
STARLINK-1238 3.6 22:43:12 10° WNW 22:47:22 80° NNE 22:48:48 40° ESE
Meteor 2-15 Rocket 4.5 22:42:23 10° NNW 22:48:32 71° W 22:50:55 38° SSW
Cosmos 1674 2.8 22:48:20 58° WSW 22:48:42 62° W 22:52:29 10° N
Helios 1B rocket 3.6 22:46:03 10° NE 22:49:43 30° E 22:50:09 29° ESE
STARLINK-1377 4.1 22:52:00 41° E 22:52:00 41° E 22:54:48 10° ENE
STARLINK-1201 3.5 22:48:10 10° WNW 22:52:21 85° NNE 22:53:34 45° ESE
STARLINK-1353 3.9 22:55:17 45° E 22:55:17 45° E 22:58:12 10° ENE
COSMOS 2455 3.3 22:52:50 21° SW 22:56:50 60° NW 23:02:49 10° NNE
USA 215 3.2 22:52:57 24° SE 22:57:07 75° SW 23:03:41 10° NW
STARLINK-1206 3.5 22:53:10 10° WNW 22:57:19 90° NW 22:58:21 50° ESE
STARLINK-1375 3.8 22:58:33 50° E 22:58:33 50° E 23:01:38 10° ENE
Cosmos 2219 3.7 22:53:27 10° NNW 22:59:04 57° ENE 23:02:18 25° SE
STARLINK-1352 3.8 23:01:56 48° E 23:01:56 48° E 23:04:46 10° ENE
STARLINK-1350 3.6 23:01:49 55° ESE 23:01:49 55° ESE 23:05:02 10° ENE
Helios 1A 3.0 23:01:35 55° SW 23:02:10 62° WSW 23:06:20 10° NNW
STARLINK-1205 3.5 22:58:08 10° WNW 23:02:17 85° SSW 23:03:07 56° SE
Cosmos 2297 Rocket 2.9 22:57:48 10° NNW 23:03:20 51° ENE 23:07:00 20° SE
Lacrosse 4 Rocket 3.8 23:03:29 10° N 23:06:52 21° NE 23:10:10 10° E
Cosmos 1726 4.2 23:04:34 10° NW 23:07:02 17° W 23:07:20 17° W
PSLV R/B 4.1 23:02:42 10° NNE 23:07:04 47° E 23:07:54 41° SE
STARLINK-1218 3.4 23:03:08 10° WNW 23:07:17 80° SSW 23:07:55 62° SE
STARLINK-1368 3.3 23:08:27 68° ESE 23:08:27 68° ESE 23:11:59 10° ENE
ALOS 2 3.7 23:07:47 30° WSW 23:08:26 31° W 23:12:22 10° NNW
Timation 2 Rocket 4.0 23:04:28 10° NNW 23:10:42 65° WSW 23:12:55 39° S
Cosmos 2058 Rocket 3.0 23:06:36 10° N 23:11:04 81° W 23:11:58 56° S
STARLINK-1369 3.2 23:11:47 74° SE 23:11:47 74° SE 23:15:28 10° ENE
STARLINK-1254 3.4 23:08:06 10° WNW 23:12:15 74° SSW 23:12:41 66° SSE
Cosmos 1626 Rocket 4.3 23:11:50 36° ESE 23:12:43 41° E 23:16:49 10° NNE
Meteor 1-29 4.2 23:10:55 10° NE 23:13:48 29° E 23:13:48 29° E
STARLINK-1372 3.2 23:15:07 79° SSE 23:15:09 79° SSE 23:18:58 10° ENE
CENTAUR R/B 4.3 23:08:50 10° WNW 23:15:28 27° WSW 23:18:17 23° SW
Meteor 2-5 Rocket 3.8 23:14:12 38° SSW 23:16:19 68° WNW 23:21:57 10° N
STARLINK-1231 3.5 23:13:05 10° WNW 23:17:13 69° SW 23:17:27 67° S
STARLINK-1378 3.2 23:18:28 79° SSW 23:18:39 84° SSE 23:22:27 10° ENE
ATLAS 3B R/B 3.2 23:12:44 10° NW 23:19:03 42° WSW 23:21:09 34° SSW
SL-14 R/B 3.1 23:19:11 69° SW 23:19:34 80° W 23:23:26 10° N
SeaSat 1 4.2 23:16:04 10° N 23:20:10 27° NW 23:24:16 10° WSW
FALCON 9 DEB 3.9 23:20:07 32° W 23:21:20 51° NNW 23:24:44 10° NE
STARLINK-1379 3.2 23:21:52 75° SW 23:22:10 88° SSE 23:25:59 10° ENE
STARLINK-1232 3.5 23:18:05 10° WNW 23:22:12 64° SW 23:22:15 64° SSW
STARLINK-1329 3.3 23:23:14 72° WSW 23:23:37 89° SE 23:27:26 10° ENE
STARLINK-1224 4.4 23:20:20 10° WNW 23:24:24 51° NNE 23:28:26 10° E
SL-16 R/B 4.0 23:20:09 10° ESE 23:25:25 31° ENE 23:30:43 10° N
STARLINK-1208 3.6 23:23:03 10° WNW 23:27:00 59° SW 23:27:00 59° SW
STARLINK-1362 3.3 23:26:40 65° WSW 23:27:11 87° NNW 23:31:01 10° ENE
ATLAS CENTAUR R/B 1.8 23:26:52 10° NW 23:29:14 60° NE 23:33:58 10° ESE
STARLINK-1225 4.4 23:25:20 10° WNW 23:29:24 53° NNE 23:33:28 10° E
Cosmos 1656 4.0 23:27:53 37° SSE 23:29:42 51° ESE 23:35:09 10° NE
STARLINK-1373 3.3 23:30:05 58° WSW 23:30:46 83° NNW 23:34:37 10° ENE
RESURS DK-1 3.4 23:29:48 29° WSW 23:31:18 40° NW 23:35:14 10° NNE
STARLINK-1365 3.4 23:31:12 53° WSW 23:32:01 80° NNW 23:35:52 10° ENE
STARLINK-1271 3.8 23:28:05 10° WNW 23:31:48 53° WSW 23:31:48 53° WSW
STARLINK-1390 3.4 23:33:34 53° WSW 23:34:23 79° NNW 23:38:13 10° ENE
STARLINK-1230 4.3 23:30:18 10° WNW 23:34:23 56° NNE 23:38:28 10° E
Cosmos 1697 Rocket 3.8 23:32:47 25° SE 23:34:45 32° ESE 23:39:43 10° NE
Cosmos 2084 4.1 23:33:37 29° WSW 23:35:37 53° NW 23:40:01 10° NNE
Cosmos 1626 2.6 23:36:00 44° W 23:36:25 46° WNW 23:40:01 10° N
STARLINK-1154 3.9 23:33:04 10° WNW 23:36:35 47° WSW 23:36:35 47° WSW
Cosmos 1812 Rocket 4.0 23:32:55 10° N 23:37:20 56° ENE 23:38:55 36° SE
BREEZE-M R/B 3.2 23:31:44 14° WSW 23:37:30 76° SSE 23:41:01 10° ENE
Okean 1-7 Rocket 4.2 23:37:39 37° WSW 23:38:52 47° WNW 23:43:16 10° N
STARLINK-1243 4.2 23:35:17 10° WNW 23:39:24 59° NNE 23:43:30 10° ESE
ATLAS CENTAUR R/B 3.6 23:36:22 10° W 23:39:40 21° NW 23:42:50 10° NNE
Cosmos 990 Rocket 4.3 23:34:53 10° NNW 23:40:08 63° ENE 23:43:10 25° SE
Cosmos 2227 Rocket 2.2 23:34:34 10° NNW 23:40:18 81° ENE 23:43:30 27° SSE
STARLINK-1197 4.1 23:38:03 10° WNW 23:41:21 42° WSW 23:41:21 42° WSW
CZ-4 R/B 3.8 23:37:34 10° N 23:42:20 72° WNW 23:43:50 43° SW
STARLINK-1236 4.1 23:40:15 10° WNW 23:44:22 62° NNE 23:48:29 10° ESE
STARLINK-1198 4.3 23:43:03 10° WNW 23:46:07 37° WSW 23:46:07 37° WSW
Cosmos 1709 Rocket 4.5 23:44:10 27° SSE 23:47:18 51° E 23:53:15 10° NNE
Cosmos 1602 Rocket 3.5 23:47:23 49° SSE 23:48:28 75° E 23:52:48 10° NNE
SL-08 ROCKET BODY 4.3 23:46:46 37° S 23:49:16 90° ESE 23:55:09 10° N
STARLINK-1269 3.9 23:50:13 10° WNW 23:54:22 70° NNE 23:58:30 10° ESE
